Tracking 31013 objects as of 10-Jul-2025
HD Live streaming from Space Station
objects crossing your sky now

STARLINK-4188

Track STARLINK-4188 now!
10-day predictions
STARLINK-4188 is classified as:


NORAD ID: 52843
Int'l Code: 2022-062P
Perigee: 546.0 km
Apogee: 547.8 km
Inclination: 53.2 °
Period: 95.4 minutes
Semi major axis: 6917 km
RCS: Unknown
Launch date: June 17, 2022
Source: United States (US)
Launch site: AIR FORCE EASTERN TEST RANGE (AFETR)
Your satellite tracking list
Your tracking list is empty




NASA's NSSDC Master Catalog

Two Line Element Set (TLE):
1 52843U 22062P   25190.88456306  .00000048  00000-0  21081-4 0  9999
2 52843  53.2184  44.1141 0001341  87.6782 272.4364 15.08838976169132
Source of the keplerian elements: AFSPC